Middlesboro, KY

9:08 AM CDT on September 26, 2017 (GMT -0500)
Middlesboro

Weather History for K1A6 - December, 2011

Change the Weather History Date:

Sunday, December 18, 2011

  Actual Average (KLOZ) Record (KLOZ)
Temperature  
Mean Temperature 42 °F -  
Max Temperature 51 °F 45 °F 70 °F (2006)
Min Temperature 32 °F 24 °F 0 °F (1963)
Degree Days  
Heating Degree Days 24    
Moisture  
Dew Point 33 °F    
Average Humidity 79    
Maximum Humidity 100    
Minimum Humidity 47    
Precipitation  
Precipitation 0.00 in - - ()
Sea Level Pressure  
Sea Level Pressure 30.32 in    
Wind  
Wind Speed 1 mph (NW)    
Max Wind Speed 8 mph    
Max Gust Speed -    
Visibility 10 miles    
Events      
Averages and records for this station are not official NWS values.
T = Trace of Precipitation, MM = Missing Value Source: NWS Daily Summary

Daily Weather History Graph

Daily Weather History Graph

Search for Another Location

Airport or City:

Trip Planner

Search our weather history database for the weather conditions in past years. The results will help you decide how hot, cold, wet, or windy it might be!

Date:

Astronomy

Dec. 18, 2011 Rise Set
Actual Time 6:41 AM CST 4:21 PM CST
Civil Twilight 6:12 AM CST 4:50 PM CST
Nautical Twilight 5:40 AM CST 5:22 PM CST
Astronomical Twilight 5:08 AM CST 5:54 PM CST
Moon No Moon Rise 11:39 AM CST (12/18)
Length of Visible Light 10h 37m
Length of Day
9h 39m
Last Quarter, 42% of the Moon is Illuminated
Dec 18
Last Quarter
Dec 24
New
Jan 1
First Quarter
Jan 9
Full
Jan 16
Last Quarter

Hourly Weather History & Observations

Time (CST) Temp. Windchill Dew Point Humidity Pressure Visibility Wind Dir Wind Speed Gust Speed Precip Events Conditions
12:15 AM 32.0 °F - 30.2 °F 93% 30.29 in 10.0 mi Calm Calm - N/A   Overcast
12:35 AM 33.8 °F - 32.0 °F 93% 30.29 in 10.0 mi Calm Calm - N/A   Overcast
12:55 AM 33.8 °F - 33.8 °F 100% 30.29 in 10.0 mi Calm Calm - N/A   Overcast
1:15 AM 33.8 °F 30.8 °F 33.8 °F 100% 30.30 in 10.0 mi ENE 3.5 mph - N/A   Overcast
1:35 AM 35.6 °F - 32.0 °F 87% 30.30 in 10.0 mi Calm Calm - N/A   Overcast
1:55 AM 35.6 °F - 32.0 °F 87% 30.30 in 10.0 mi Calm Calm - N/A   Overcast
2:55 AM 37.4 °F - 30.2 °F 75% 30.31 in 10.0 mi Calm Calm - N/A   Overcast
3:15 AM 37.4 °F - 30.2 °F 75% 30.32 in 10.0 mi Calm Calm - N/A   Overcast
3:35 AM 37.4 °F - 30.2 °F 75% 30.32 in 10.0 mi Calm Calm - N/A   Overcast
3:55 AM 37.4 °F - 32.0 °F 81% 30.32 in 10.0 mi Calm Calm - N/A   Overcast
4:15 AM 39.2 °F 37.0 °F 32.0 °F 75% 30.31 in 10.0 mi NW 3.5 mph - N/A   Overcast
4:35 AM 37.4 °F - 32.0 °F 81% 30.31 in 10.0 mi Calm Calm - N/A   Overcast
4:55 AM 37.4 °F - 32.0 °F 81% 30.32 in 10.0 mi Calm Calm - N/A   Overcast
5:15 AM 37.4 °F - 32.0 °F 81% 30.34 in 10.0 mi Calm Calm - N/A   Overcast
5:35 AM 35.6 °F - 32.0 °F 87% 30.34 in 10.0 mi Calm Calm - N/A   Overcast
5:55 AM 35.6 °F - 32.0 °F 87% 30.35 in 10.0 mi Calm Calm - N/A   Mostly Cloudy
6:15 AM 33.8 °F - 32.0 °F 93% 30.36 in 10.0 mi Calm Calm - N/A   Mostly Cloudy
6:55 AM 33.8 °F - 32.0 °F 93% 30.36 in 10.0 mi Calm Calm - N/A   Overcast
7:15 AM 33.8 °F - 32.0 °F 93% 30.36 in 10.0 mi Calm Calm - N/A   Mostly Cloudy
7:35 AM 33.8 °F - 32.0 °F 93% 30.37 in 7.0 mi Calm Calm - N/A   Clear
7:55 AM 33.8 °F - 33.8 °F 100% 30.37 in 7.0 mi Calm Calm - N/A   Clear
8:15 AM 35.6 °F - 33.8 °F 93% 30.37 in 10.0 mi Calm Calm - N/A   Clear
8:35 AM 37.4 °F - 33.8 °F 87% 30.37 in 10.0 mi Calm Calm - N/A   Clear
8:55 AM 39.2 °F - 33.8 °F 81% 30.36 in 10.0 mi Calm Calm - N/A   Clear
9:15 AM 41.0 °F 39.0 °F 33.8 °F 76% 30.35 in 10.0 mi East 3.5 mph - N/A   Clear
9:35 AM 42.8 °F - 33.8 °F 70% 30.34 in 10.0 mi Calm Calm - N/A   Clear
9:55 AM 42.8 °F - 33.8 °F 70% 30.35 in 10.0 mi Calm Calm - N/A   Clear
10:15 AM 44.6 °F - 33.8 °F 66% 30.35 in 10.0 mi Calm Calm - N/A   Clear
10:35 AM 44.6 °F - 33.8 °F 66% 30.35 in 10.0 mi Calm Calm - N/A   Clear
10:55 AM 46.4 °F 45.2 °F 33.8 °F 62% 30.34 in 10.0 mi South 3.5 mph - N/A   Clear
11:15 AM 46.4 °F 45.2 °F 35.6 °F 66% 30.33 in 10.0 mi East 3.5 mph - N/A   Clear
11:35 AM 48.2 °F - 33.8 °F 58% 30.33 in 10.0 mi Calm Calm - N/A   Clear
12:35 PM 51.8 °F - 33.8 °F 50% 30.32 in 10.0 mi Calm Calm - N/A   Clear
1:15 PM 51.8 °F - 32.0 °F 47% 30.31 in 10.0 mi West 8.1 mph - N/A   Clear
1:35 PM 51.8 °F - 32.0 °F 47% 30.31 in 10.0 mi NNW 5.8 mph - N/A   Clear
1:55 PM 51.8 °F - 33.8 °F 50% 30.31 in 10.0 mi NNW 5.8 mph - N/A   Clear
2:15 PM 51.8 °F - 32.0 °F 47% 30.31 in 10.0 mi WNW 5.8 mph - N/A   Clear
2:35 PM 51.8 °F - 33.8 °F 50% 30.32 in 10.0 mi West 5.8 mph - N/A   Clear
2:55 PM 51.8 °F - 33.8 °F 50% 30.33 in 10.0 mi WNW 3.5 mph - N/A   Clear
3:15 PM 50.0 °F - 32.0 °F 50% 30.33 in 10.0 mi West 4.6 mph - N/A   Clear
3:35 PM 48.2 °F - 32.0 °F 54% 30.32 in 10.0 mi Calm Calm - N/A   Clear
3:55 PM 46.4 °F - 33.8 °F 62% 30.31 in 10.0 mi Calm Calm - N/A   Clear
4:15 PM 44.6 °F - 33.8 °F 66% 30.30 in 5.0 mi Calm Calm - N/A   Haze
4:35 PM 42.8 °F - 35.6 °F 76% 30.29 in 7.0 mi Calm Calm - N/A   Clear
4:55 PM 41.0 °F - 33.8 °F 76% 30.29 in 10.0 mi Calm Calm - N/A   Clear
5:15 PM 39.2 °F 37.0 °F 33.8 °F 81% 30.29 in 10.0 mi NW 3.5 mph - N/A   Clear
5:35 PM 39.2 °F - 33.8 °F 81% 30.29 in 10.0 mi Calm Calm - N/A   Clear
5:55 PM 37.4 °F - 33.8 °F 87% 30.29 in 10.0 mi Calm Calm - N/A   Clear
6:15 PM 37.4 °F - 33.8 °F 87% 30.29 in 10.0 mi Calm Calm - N/A   Clear
6:35 PM 35.6 °F - 33.8 °F 93% 30.29 in 10.0 mi Calm Calm - N/A   Clear
6:55 PM 35.6 °F - 33.8 °F 93% 30.30 in 10.0 mi Calm Calm - N/A   Clear
7:15 PM 33.8 °F - 32.0 °F 93% 30.30 in 10.0 mi Calm Calm - N/A   Clear
7:35 PM 35.6 °F - 33.8 °F 93% 30.29 in 10.0 mi Calm Calm - N/A   Clear
7:55 PM 33.8 °F - 33.8 °F 100% 30.30 in 10.0 mi Calm Calm - N/A   Clear
8:15 PM 33.8 °F - 33.8 °F 100% 30.29 in 10.0 mi Calm Calm - N/A   Clear
8:35 PM 33.8 °F - 33.8 °F 100% 30.29 in 10.0 mi Calm Calm - N/A   Clear
8:55 PM 33.8 °F - 33.8 °F 100% 30.28 in 10.0 mi Calm Calm - N/A   Clear
9:15 PM 33.8 °F - 33.8 °F 100% 30.29 in 10.0 mi Calm Calm - N/A   Clear
9:35 PM 33.8 °F - 33.8 °F 100% 30.29 in 10.0 mi Calm Calm - N/A   Clear
9:55 PM 33.8 °F - 32.0 °F 93% 30.29 in 10.0 mi Calm Calm - N/A   Clear
10:15 PM 33.8 °F - 32.0 °F 93% 30.29 in 10.0 mi Calm Calm - N/A   Clear
10:35 PM 33.8 °F - 32.0 °F 93% 30.28 in 10.0 mi Calm Calm - N/A   Clear
10:55 PM 32.0 °F - 32.0 °F 100% 30.28 in 10.0 mi Calm Calm - N/A   Clear
11:15 PM 32.0 °F - 30.2 °F 93% 30.28 in 10.0 mi Calm Calm - N/A   Clear
11:35 PM 30.2 °F - 30.2 °F 100% 30.28 in 10.0 mi Calm Calm - N/A   Clear
11:55 PM 30.2 °F - 30.2 °F 100% 30.27 in 10.0 mi Calm Calm - N/A   Clear